Meath Environmental Platform

Observations for Trim Market St

Time AQI Temp °C Hum % Pres Pa CO μg/m³ H₂S μg/m³ NO μg/m³ NO₂ μg/m³ O₃ μg/m³ SO₂ μg/m³ PM1 μg/m³ PM2.5 μg/m³ PM10 μg/m³
Tuesday 18 August 2026
19:13 2 18 72 33,488 0.03 4.58 1.85 33.48 62.11 0 0.71 1.99 3.84
19:12 2 18.1 72 34,435 0.05 4.04 1.89 34.76 59.47 0 0.71 1.99 5.07
19:11 2 18.1 72 35,380 0.04 3.67 1.87 29.88 63.8 0 0 2.49 5.07
19:10 2 18.1 72 36,144 0.03 4.85 1.87 34.64 61.76 0 1.43 2.49 5.68
19:09 2 18.2 72 37,170 0.03 3.01 1.86 32.45 59.01 0 0.71 2.01 3.83
19:08 2 18.2 71 37,913 0.09 4.27 1.93 34.13 60.63 0 0.71 2.02 5.06
19:05 2 18.3 71 38,568 0.13 6.56 1.74 41.79 57.06 0 0.71 2.03 5.05
19:02 2 18.4 71 41,213 0 5.17 1.52 28.59 64.03 0 0.71 2.54 5.04
18:54 2 18.7 69 46,726 0 6.82 1.93 37.68 61.49 0 0 2.11 5.01
18:53 2 18.8 69 47,407 0.02 7.4 1.92 43.43 57.45 0 0.71 1.63 3.11
18:50 2 18.9 69 48,492 0 7.75 1.85 41.38 61.87 0 0 2.14 3.72
18:49 2 18.9 68 49,210 0 8.53 1.87 49.7 54.75 0 0.71 3.13 4.98
18:48 2 19 68 49,881 0 8.4 1.81 42.03 62.19 0 0 2.16 3.71
18:47 2 19 68 50,392 0 6.88 1.69 36.95 61.92 0 0 1.68 3.06
18:46 2 19.1 68 50,815 0 7.59 1.75 36.01 63.5 0 0 1.2 3.05
18:44 2 19.1 68 51,804 0 8.27 2 41.2 61.42 0 0.71 2.68 5.6
18:42 2 19.1 67 52,756 0 9.38 2.02 38.11 62.69 0 0 1.72 3.67
18:40 2 19.2 67 53,907 0 6.75 2.36 34.06 63.62 0 0 1.74 3.65
18:39 2 19.3 66 54,243 0 8.25 2.25 35.87 65.59 0 0.71 2.24 4.94
18:38 2 19.3 66 54,644 0 8.15 2.24 38.25 61.8 0 0.71 2.25 3.63